Tracking 31027 objects as of 19-Jul-2025
HD Live streaming from Space Station
objects crossing your sky now

COSMOS 2499 DEB

Track COSMOS 2499 DEB now!
10-day predictions


NORAD ID: 55729
Int'l Code: 2014-028AR
Perigee: 1,153.9 km
Apogee: 1,515.9 km
Inclination: 82.5 °
Period: 112.2 minutes
Semi major axis: 7705 km
RCS: Unknown
Launch date: May 23, 2014
Source: Commonwealth of Independent States (former USSR) (CIS)
Launch site: PLESETSK MISSILE AND SPACE COMPLEX (PKMTR)

Note: This is SATELLITE DEBRIS
Your satellite tracking list
STARLINK-31879
Track 1 satellite(s)




NASA's NSSDC Master Catalog

Two Line Element Set (TLE):
1 55729U 14028AR  25199.21336289  .00000161  00000-0  55069-3 0  9999
2 55729  82.4543 117.7322 0234914  63.3047 299.1897 12.83412349117219
Source of the keplerian elements: AFSPC